Regional Weather Roundup
Issued by NWS

Home | Current Version | Previous Version | Graphics & Text | Print | Product List | Glossary On
Versions: 1 2 3 4 5 6 7 8 9 10 11 12 13 14 15 16 17 18 19 20 21 22 23 24 25 26 27 28 29 30 31 32 33 34 35 36 37 38 39 40 41 42 43 44 45 46 47 48 49
000
ASUS45 KCYS 201610
RWRWY

WYOMING REGIONAL WEATHER ROUNDUP
NATIONAL WEATHER SERVICE CHEYENNE WY
1000 AM MDT MON OCT 20 2014

NOTE:  "FAIR" INDICATES FEW OR NO CLOUDS BELOW 12,000 FEET
WITH NO SIGNIFICANT WEATHER AND/OR OBSTRUCTIONS TO VISIBILITY.

WYZ001-201700-
YELLOWSTONE NATIONAL PARK

CITY           SKY/WX    TMP DP  RH WIND       PRES   REMARKS
LK YELLOWSTONE   N/A     40  31  70 CALM      30.24R
W YELLOWSTONE  NOT AVBL

$$
WYZ002>013-054>058-071-098>099-201700-
NORTHERN WYOMING

CITY           SKY/WX    TMP DP  RH WIND       PRES   REMARKS
JACKSON        SUNNY     37  25  60 CALM      30.21S
CODY           SUNNY    N/A N/A N/A CALM      30.03S
GREYBULL       SUNNY     46  30  53 CALM      30.04R
WORLAND        SUNNY     47  31  53 CALM      30.03S
SHERIDAN       SUNNY     53  34  48 N3        29.98R
BUFFALO        SUNNY     67  28  23 CALM      30.02S
GILLETTE         N/A     58  37  45 MISG      30.02S
HULETT         FAIR      66  36  32 W5        30.04
NEWCASTLE      FAIR      61  36  39 SE9       30.08

$$
WYZ014>020-022>026-101>103-201700-
CENTRAL WYOMING

CITY           SKY/WX    TMP DP  RH WIND       PRES   REMARKS
BIG PINEY      SUNNY     42  26  53 SE3       30.23S
PINEDALE       SUNNY     41  30  65 CALM      30.23S
DUBOIS         FAIR      50  23  34 MISG      30.16S
LANDER         SUNNY     50  35  56 CALM      30.11S
RIVERTON       SUNNY     49  30  48 SE3       30.12S
CASPER         SUNNY     52  34  50 E6        30.11S
DOUGLAS        SUNNY     50  36  58 CALM      30.11S

$$
WYZ021-027>030-104>119-201700-
SOUTHERN WYOMING

CITY           SKY/WX    TMP DP  RH WIND       PRES   REMARKS
EVANSTON       NOT AVBL
KEMMERER       SUNNY     46  30  53 N7        30.22S
FORT BRIDGER   FAIR      46  31  54 CALM      30.24S
ROCK SPRINGS   SUNNY     47  32  56 CALM      30.21R
DIXON          FAIR      50  35  55 S3        30.25S
RAWLINS        SUNNY     48  30  49 CALM      30.22S
SARATOGA       FAIR      55  32  41 S10       30.24R
LARAMIE        SUNNY     52  34  50 S6        30.23S
CHEYENNE       SUNNY     60  38  43 SW6       30.18S
TORRINGTON     SUNNY     55  40  56 VRB3      30.10S
PINE BLUFFS    FAIR      61  37  41 S12       30.17R

$$


USA.gov is the U.S. government's official web portal to all federal, state and local government web resources and services.